{"data":{"norad_id":64101,"intl_designator":"2025-110F","name":"STARLINK-34072","alt_names":[],"object_type":"PAYLOAD","status":"ACTIVE","operator":null,"country":"US","launch_date":"2025-05-23","launch_site_code":"AFWTR","launch_vehicle":null,"mission":null,"orbit_class":"UNKNOWN","rcs_meters":null,"size_class":null,"mass_kg":null,"dimensions":null,"purposes":["comms"],"wikipedia_slug":null,"has_3d_model":false,"image_url":null,"decayed_at":null,"tle_current":{"epoch":"2026-09-20T12:47:34.876320Z","epoch_age_seconds":140754,"freshness":"FRESH","line1":"1 64101U 25110F   26263.53304255  .00008929  00000+0  29900-3 0  9997","line2":"2 64101  53.1579 200.3382 0002130  72.1516 287.9717 15.31716455 75731","mean_motion":15.31716455,"eccentricity":0.000213,"inclination_deg":53.1579,"raan_deg":200.3382,"arg_perigee_deg":72.1516,"mean_anomaly_deg":287.9717,"bstar":0.000299,"rev_number":7573,"period_min":94.01217799152,"perigee_km":469.23214381392,"apogee_km":472.14974451813,"semimajor_km":6848.827944166,"source":"CELESTRAK","updated_at":"2026-09-21T09:00:35.227351Z"}}}